Back to catalog

COSMOS 983

AliveMilitaryLEO
NORAD 10590·PAYLOAD·🇷🇺 Russia

Launched Jan 10, 1978 from Plesetsk Cosmodrome

Loading…

Next Passes (next 24 hours)

TLE

FreshSource: Space-Track

Epoch: Sep 14, 2026, 14:18 UTC

1 10590U 78005H   26257.59644110 -.00000022  00000-0 -48475-4 0  9995
2 10590  74.0291 223.9401 0047399 250.7366 108.8549 12.41512471206081

Track COSMOS 983 in real time with AllMySat

Download on the App Store